Location: Buttermere
(51.3333°N, 1.5167°W)
Time: 11:09:23
(UTC+00:00)

Cosmos 2150 Rocket - Visible Passes

Search period start: 20 January 2021 00:00
Search period end: 30 January 2021 00:00
Orbit: 749 x 807 km, 74.0° (Epoch: 20 January)

Date Brightness Start Highest point End Pass type
(mag) Time Alt. Az. Time Alt. Az. Time Alt. Az.
20 Jan 6.0 05:03:46 11° N 05:07:49 25° NE 05:12:14 10° ESE visible
20 Jan 4.0 06:45:19 10° NNW 06:50:36 69° WSW 06:55:57 10° SSE visible
21 Jan 6.3 04:30:35 13° N 04:33:32 19° NE 04:37:19 10° E visible
21 Jan 4.1 06:11:19 10° NNW 06:16:40 82° ENE 06:22:04 10° SSE visible
22 Jan 6.6 03:57:27 13° NNE 03:59:09 15° NE 04:02:06 10° ENE visible
22 Jan 4.6 05:37:56 13° NNW 05:42:39 57° ENE 05:47:57 10° SE visible
23 Jan 6.8 03:24:22 11° NNE 03:24:42 11° NNE 03:26:24 10° NE visible
23 Jan 5.2 05:04:51 17° N 05:08:33 40° NE 05:13:37 10° SE visible
23 Jan 4.6 06:45:55 10° NW 06:50:50 38° WSW 06:55:47 10° S visible
24 Jan 5.8 04:31:50 20° N 04:34:22 29° NE 04:39:04 10° ESE visible
24 Jan 4.1 06:12:20 13° NNW 06:17:00 57° WSW 06:22:16 10° S visible
25 Jan 6.1 03:58:54 20° NNE 04:00:07 22° NE 04:04:16 10° E visible
25 Jan 3.9 05:39:24 21° NNW 05:43:05 84° WSW 05:48:30 10° SSE visible
26 Jan 6.5 03:26:02 17° NE 03:26:02 17° NE 03:29:13 10° E visible
26 Jan 4.3 05:06:34 31° NNW 05:09:06 69° ENE 05:14:30 10° SSE visible
26 Jan 5.3 06:47:04 11° NW 06:50:54 22° W 06:54:56 10° SW visible
26 Jan 5.7 19:48:15 10° SSW 19:49:58 21° SSW 19:49:58 21° SSW visible
27 Jan 7.0 02:53:19 11° ENE 02:53:19 11° ENE 02:53:48 10° ENE visible
27 Jan 4.9 04:33:50 41° NNE 04:35:03 48° ENE 04:40:16 10° SE visible
27 Jan 4.8 06:14:21 20° NW 06:17:10 32° WSW 06:21:54 10° SSW visible
27 Jan 4.7 19:14:34 10° S 19:17:59 37° SSE 19:17:59 37° SSE visible
27 Jan 6.5 20:57:23 10° WSW 20:58:34 16° WSW 20:58:34 16° WSW visible
28 Jan 5.5 04:01:14 34° ENE 04:01:14 34° ENE 04:05:49 10° ESE visible
28 Jan 4.3 05:41:46 36° WNW 05:43:23 47° WSW 05:48:32 10° S visible
28 Jan 4.6 18:41:10 10° SSE 18:45:43 33° ESE 18:45:59 32° E visible
28 Jan 5.3 20:22:54 10° SW 20:26:32 37° W 20:26:32 37° W visible
29 Jan 6.3 03:28:46 20° E 03:28:46 20° E 03:31:09 10° ESE visible
29 Jan 3.9 05:09:19 69° W 05:09:30 70° WSW 05:14:53 10° SSE visible
29 Jan 5.8 06:49:51 11° W 06:50:48 12° W 06:52:40 10° WSW visible
29 Jan 5.1 18:08:05 10° SSE 18:11:59 22° E 18:13:52 18° ENE visible
29 Jan 4.3 19:48:39 10° SW 19:53:47 65° WNW 19:54:26 59° NNW visible
29 Jan 6.8 21:34:03 10° WNW 21:35:00 13° WNW 21:35:00 13° WNW visible
